This is the latest recevied weather packets stored in our database for station/object N4JTC. If no packets are shown the sender has not sent any weather packets the latest 10 day(s).
| Time | Temp. | Humidity | Pressure | Rain* | Wind** | Luminosity | Snow |
|---|---|---|---|---|---|---|---|
| 1778158503 | 25.56° C | 88% | 1015.4 hPa | 0 mm | - | 161 W/m² | - |
| 1778158203 | 25.56° C | 88% | 1015.3 hPa | 0 mm | - | 239 W/m² | - |
| 1778157903 | 25.56° C | 89% | 1015.4 hPa | 0 mm | - | 170 W/m² | - |
| 1778157603 | 25.56° C | 88% | 1015.3 hPa | 0 mm | - | 171 W/m² | - |
| 1778157303 | 25.56° C | 89% | 1015.2 hPa | 0 mm | - | 171 W/m² | - |
| 1778157003 | 25° C | 90% | 1015.3 hPa | 0 mm | - | 144 W/m² | - |
| 1778156703 | 25° C | 90% | 1015.1 hPa | 0 mm | - | 131 W/m² | - |
| 1778156402 | 25° C | 90% | 1015.1 hPa | 0 mm | - | 109 W/m² | - |
| 1778156103 | 24.44° C | 91% | 1015 hPa | 0 mm | - | 99 W/m² | - |
| 1778155503 | 24.44° C | 91% | 1015.2 hPa | 0 mm | - | 60 W/m² | - |
| 1778155203 | 24.44° C | 91% | 1015.1 hPa | 0 mm | - | 70 W/m² | - |
| 1778154903 | 24.44° C | 91% | 1015 hPa | 0 mm | - | 62 W/m² | - |
| 1778154603 | 24.44° C | 91% | 1014.9 hPa | 0 mm | - | 54 W/m² | - |
| 1778154302 | 24.44° C | 91% | 1014.6 hPa | 0 mm | - | 48 W/m² | - |
| 1778154003 | 24.44° C | 91% | 1014.4 hPa | 0 mm | - | 42 W/m² | - |
| 1778153703 | 24.44° C | 91% | 1014.4 hPa | 0 mm | - | 35 W/m² | - |
| 1778153403 | 24.44° C | 92% | 1014.2 hPa | 0 mm | - | 30 W/m² | - |
| 1778153103 | 23.89° C | 92% | 1013.8 hPa | 0 mm | - | 26 W/m² | - |
| 1778152803 | 23.89° C | 92% | 1013.8 hPa | 0 mm | - | 17 W/m² | - |
| 1778152503 | 23.89° C | 92% | 1013.8 hPa | 0 mm | - | 11 W/m² | - |
| 1778151904 | 23.89° C | 92% | 1013.4 hPa | 0 mm | - | 4 W/m² | - |
| 1778151605 | 23.89° C | 92% | 1013.5 hPa | 0 mm | - | 3 W/m² | - |
| 1778151304 | 23.89° C | 92% | 1013.7 hPa | 0 mm | - | 1 W/m² | - |
| 1778151003 | 23.89° C | 92% | 1013.4 hPa | 0 mm | - | 0 W/m² | - |
| 1778150704 | 23.89° C | 92% | 1013.2 hPa | 0 mm | - | 0 W/m² | - |
* Rain latest hour (hover to see other rain measurements)
** Current wind speed in m/s (hover to see current wind gust speed)